Time,TemperatureF,DewpointF,PressureIn,WindDirection,WindDirectionDegrees,WindSpeedMPH,WindSpeedGustMPH,Humidity,HourlyPrecipIn,Conditions,Clouds,dailyrainin,SoftwareType,DateUTC
2013-01-13 00:03:00,30.0,25.0,29.88,North,355,3.0,3.0,84,-99.99,,,-99.99,,2013-01-13 06:03:00,
2013-01-13 00:12:00,29.0,25.0,29.91,North,0,2.0,4.0,84,-99.99,,,-99.99,,2013-01-13 06:12:00,
2013-01-13 00:22:00,29.0,25.0,29.91,North,0,2.0,4.0,84,-99.99,,,-99.99,,2013-01-13 06:22:00,
2013-01-13 00:32:00,29.0,25.0,29.89,North,5,2.0,3.0,84,-99.99,,,-99.99,,2013-01-13 06:32:00,
2013-01-13 00:42:00,29.0,24.0,29.87,NNE,15,2.0,3.0,84,-99.99,,,-99.99,,2013-01-13 06:42:00,
2013-01-13 00:52:00,29.0,24.0,29.87,NNE,15,2.0,3.0,84,-99.99,,,-99.99,,2013-01-13 06:52:00,
2013-01-13 01:02:00,29.0,25.0,29.88,NNE,20,2.0,2.0,85,-99.99,,,-99.99,,2013-01-13 07:02:00,
2013-01-13 01:12:00,28.0,24.0,29.86,NNE,25,2.0,3.0,85,-99.99,,,-99.99,,2013-01-13 07:12:00,
2013-01-13 01:22:00,28.0,24.0,29.86,NNE,25,2.0,3.0,85,-99.99,,,-99.99,,2013-01-13 07:22:00,
2013-01-13 01:32:00,28.0,24.0,29.88,NNE,15,2.0,2.0,85,-99.99,,,-99.99,,2013-01-13 07:32:00,
2013-01-13 01:42:00,28.0,24.0,29.90,North,0,2.0,2.0,85,-99.99,,,-99.99,,2013-01-13 07:42:00,
2013-01-13 01:52:00,28.0,24.0,29.90,North,0,2.0,2.0,85,-99.99,,,-99.99,,2013-01-13 07:52:00,
2013-01-13 02:02:00,28.0,24.0,29.90,North,0,1.0,2.0,85,-99.99,,,-99.99,,2013-01-13 08:02:00,
2013-01-13 02:12:00,28.0,24.0,29.91,North,5,2.0,2.0,85,-99.99,,,-99.99,,2013-01-13 08:12:00,
2013-01-13 02:22:00,28.0,24.0,29.91,North,5,2.0,2.0,85,-99.99,,,-99.99,,2013-01-13 08:22:00,
2013-01-13 02:32:00,28.0,23.0,29.94,NNW,345,2.0,3.0,84,-99.99,,,-99.99,,2013-01-13 08:32:00,
2013-01-13 02:42:00,28.0,23.0,29.93,North,5,2.0,3.0,84,-99.99,,,-99.99,,2013-01-13 08:42:00,
2013-01-13 02:52:00,28.0,23.0,29.93,North,5,2.0,3.0,84,-99.99,,,-99.99,,2013-01-13 08:52:00,
2013-01-13 03:02:00,27.0,23.0,29.95,North,0,2.0,3.0,84,-99.99,,,-99.99,,2013-01-13 09:02:00,
2013-01-13 03:12:00,27.0,23.0,29.93,North,0,2.0,3.0,84,-99.99,,,-99.99,,2013-01-13 09:12:00,
2013-01-13 03:22:00,27.0,23.0,29.93,North,0,2.0,3.0,84,-99.99,,,-99.99,,2013-01-13 09:22:00,
2013-01-13 03:32:00,27.0,23.0,29.92,North,5,3.0,3.0,84,-99.99,,,-99.99,,2013-01-13 09:32:00,
2013-01-13 03:42:00,27.0,22.0,29.94,North,10,3.0,3.0,84,-99.99,,,-99.99,,2013-01-13 09:42:00,
2013-01-13 03:52:00,27.0,22.0,29.94,North,10,3.0,3.0,84,-99.99,,,-99.99,,2013-01-13 09:52:00,
2013-01-13 04:02:00,27.0,23.0,29.97,North,0,2.0,2.0,84,-99.99,,,-99.99,,2013-01-13 10:02:00,
2013-01-13 04:12:00,26.0,22.0,29.96,North,5,2.0,2.0,84,-99.99,,,-99.99,,2013-01-13 10:12:00,
2013-01-13 04:22:00,26.0,22.0,29.96,North,5,2.0,2.0,84,-99.99,,,-99.99,,2013-01-13 10:22:00,
2013-01-13 04:32:00,26.0,21.0,29.96,North,10,2.0,3.0,83,-99.99,,,-99.99,,2013-01-13 10:32:00,
2013-01-13 04:42:00,26.0,21.0,29.94,North,0,2.0,3.0,82,-99.99,,,-99.99,,2013-01-13 10:42:00,
2013-01-13 04:52:00,26.0,21.0,29.94,North,0,2.0,3.0,82,-99.99,,,-99.99,,2013-01-13 10:52:00,
2013-01-13 05:02:00,25.0,20.0,29.93,NNE,15,2.0,3.0,81,-99.99,,,-99.99,,2013-01-13 11:02:00,
2013-01-13 05:12:00,25.0,19.0,29.95,North,5,2.0,3.0,80,-99.99,,,-99.99,,2013-01-13 11:12:00,
2013-01-13 05:22:00,25.0,19.0,29.95,North,5,2.0,3.0,80,-99.99,,,-99.99,,2013-01-13 11:22:00,
2013-01-13 05:32:00,25.0,19.0,29.96,North,0,2.0,3.0,80,-99.99,,,-99.99,,2013-01-13 11:32:00,
2013-01-13 05:42:00,24.0,18.0,29.96,North,5,2.0,3.0,78,-99.99,,,-99.99,,2013-01-13 11:42:00,
2013-01-13 05:52:00,24.0,18.0,29.96,North,5,2.0,3.0,78,-99.99,,,-99.99,,2013-01-13 11:52:00,
2013-01-13 06:03:00,24.0,18.0,29.98,North,0,2.0,3.0,78,-99.99,,,-99.99,,2013-01-13 12:03:00,
2013-01-13 06:12:00,24.0,18.0,29.96,North,5,2.0,2.0,78,-99.99,,,-99.99,,2013-01-13 12:12:00,
2013-01-13 06:22:00,24.0,18.0,29.96,North,5,2.0,2.0,78,-99.99,,,-99.99,,2013-01-13 12:22:00,
2013-01-13 06:32:00,24.0,18.0,29.96,NNE,20,2.0,3.0,78,-99.99,,,-99.99,,2013-01-13 12:32:00,
2013-01-13 06:42:00,24.0,18.0,29.98,North,0,2.0,2.0,78,-99.99,,,-99.99,,2013-01-13 12:42:00,
2013-01-13 06:52:00,24.0,18.0,29.98,North,0,2.0,2.0,78,-99.99,,,-99.99,,2013-01-13 12:52:00,
2013-01-13 07:03:00,24.0,18.0,30.00,North,10,2.0,2.0,78,-99.99,,,-99.99,,2013-01-13 13:03:00,
2013-01-13 07:12:00,24.0,18.0,30.03,North,0,2.0,2.0,78,-99.99,,,-99.99,,2013-01-13 13:12:00,
2013-01-13 07:22:00,24.0,18.0,30.03,North,0,2.0,2.0,78,-99.99,,,-99.99,,2013-01-13 13:22:00,
2013-01-13 07:33:00,24.0,18.0,30.02,North,0,2.0,2.0,78,-99.99,,,-99.99,,2013-01-13 13:33:00,
2013-01-13 07:42:00,23.0,17.0,30.03,North,5,2.0,3.0,77,-99.99,,,-99.99,,2013-01-13 13:42:00,
2013-01-13 07:53:00,23.0,17.0,30.03,North,5,2.0,3.0,77,-99.99,,,-99.99,,2013-01-13 13:53:00,
2013-01-13 08:03:00,23.0,17.0,30.03,North,5,2.0,3.0,76,-99.99,,,-99.99,,2013-01-13 14:03:00,
2013-01-13 08:12:00,23.0,17.0,30.04,North,0,2.0,2.0,77,-99.99,,,-99.99,,2013-01-13 14:12:00,
2013-01-13 08:22:00,23.0,17.0,30.04,North,0,2.0,2.0,77,-99.99,,,-99.99,,2013-01-13 14:22:00,
2013-01-13 08:33:00,23.0,17.0,30.00,NNE,15,2.0,3.0,77,-99.99,,,-99.99,,2013-01-13 14:33:00,
2013-01-13 08:43:00,23.0,17.0,30.04,North,0,2.0,3.0,77,-99.99,,,-99.99,,2013-01-13 14:43:00,
2013-01-13 08:52:00,23.0,17.0,30.04,North,0,2.0,3.0,77,-99.99,,,-99.99,,2013-01-13 14:52:00,
2013-01-13 09:03:00,22.0,17.0,30.03,North,0,2.0,2.0,78,-99.99,,,-99.99,,2013-01-13 15:03:00,
2013-01-13 09:12:00,22.0,16.0,30.03,North,5,2.0,3.0,78,-99.99,,,-99.99,,2013-01-13 15:12:00,
2013-01-13 09:23:00,22.0,16.0,30.03,North,5,2.0,3.0,78,-99.99,,,-99.99,,2013-01-13 15:23:00,
2013-01-13 09:33:00,22.0,16.0,30.04,North,350,2.0,2.0,78,-99.99,,,-99.99,,2013-01-13 15:33:00,
2013-01-13 09:43:00,22.0,17.0,30.06,North,0,1.0,2.0,79,-99.99,,,-99.99,,2013-01-13 15:43:00,
2013-01-13 09:52:00,22.0,17.0,30.06,North,0,1.0,2.0,79,-99.99,,,-99.99,,2013-01-13 15:52:00,
2013-01-13 10:03:00,22.0,16.0,30.08,North,350,2.0,3.0,78,-99.99,,,-99.99,,2013-01-13 16:03:00,
2013-01-13 10:12:00,22.0,16.0,30.09,North,0,2.0,3.0,77,-99.99,,,-99.99,,2013-01-13 16:12:00,
2013-01-13 10:23:00,22.0,16.0,30.09,North,0,2.0,3.0,77,-99.99,,,-99.99,,2013-01-13 16:23:00,
2013-01-13 10:33:00,22.0,16.0,30.09,North,355,2.0,3.0,77,-99.99,,,-99.99,,2013-01-13 16:33:00,
2013-01-13 10:43:00,22.0,16.0,30.09,North,0,2.0,3.0,77,-99.99,,,-99.99,,2013-01-13 16:43:00,
2013-01-13 10:53:00,22.0,16.0,30.09,North,0,2.0,3.0,77,-99.99,,,-99.99,,2013-01-13 16:53:00,
2013-01-13 11:03:00,22.0,16.0,30.09,North,350,2.0,2.0,77,-99.99,,,-99.99,,2013-01-13 17:03:00,
2013-01-13 11:12:00,22.0,16.0,30.08,North,355,2.0,2.0,77,-99.99,,,-99.99,,2013-01-13 17:12:00,
2013-01-13 11:22:00,22.0,16.0,30.08,North,355,2.0,2.0,77,-99.99,,,-99.99,,2013-01-13 17:22:00,
2013-01-13 11:33:00,23.0,17.0,30.07,NNW,340,2.0,3.0,77,-99.99,,,-99.99,,2013-01-13 17:33:00,
2013-01-13 11:42:00,22.0,17.0,30.07,NNW,335,2.0,3.0,78,-99.99,,,-99.99,,2013-01-13 17:42:00,
2013-01-13 11:53:00,22.0,17.0,30.07,NNW,335,2.0,3.0,78,-99.99,,,-99.99,,2013-01-13 17:53:00,
2013-01-13 12:03:00,22.0,16.0,30.08,NNW,345,2.0,3.0,77,-99.99,,,-99.99,,2013-01-13 18:03:00,
2013-01-13 12:12:00,23.0,17.0,30.07,NW,325,2.0,3.0,78,-99.99,,,-99.99,,2013-01-13 18:12:00,
2013-01-13 12:23:00,23.0,17.0,30.07,NW,325,2.0,3.0,78,-99.99,,,-99.99,,2013-01-13 18:23:00,
2013-01-13 12:33:00,22.0,17.0,30.07,North,355,2.0,3.0,78,-99.99,,,-99.99,,2013-01-13 18:33:00,
2013-01-13 12:43:00,23.0,17.0,30.07,NNW,330,2.0,3.0,77,-99.99,,,-99.99,,2013-01-13 18:43:00,
2013-01-13 12:53:00,23.0,17.0,30.07,NNW,330,2.0,3.0,77,-99.99,,,-99.99,,2013-01-13 18:53:00,
2013-01-13 13:03:00,23.0,17.0,30.06,NNW,340,2.0,3.0,77,-99.99,,,-99.99,,2013-01-13 19:03:00,
2013-01-13 13:12:00,22.0,15.0,30.06,NNW,340,3.0,3.0,74,-99.99,,,-99.99,,2013-01-13 19:12:00,
2013-01-13 13:22:00,22.0,15.0,30.06,NNW,340,3.0,3.0,74,-99.99,,,-99.99,,2013-01-13 19:22:00,
2013-01-13 13:33:00,22.0,15.0,30.07,North,0,2.0,3.0,74,-99.99,,,-99.99,,2013-01-13 19:33:00,
2013-01-13 13:43:00,23.0,16.0,30.07,NNW,345,2.0,3.0,75,-99.99,,,-99.99,,2013-01-13 19:43:00,
2013-01-13 13:52:00,23.0,16.0,30.07,NNW,345,2.0,3.0,75,-99.99,,,-99.99,,2013-01-13 19:52:00,
2013-01-13 14:03:00,23.0,16.0,30.08,NNW,345,3.0,3.0,75,-99.99,,,-99.99,,2013-01-13 20:03:00,
2013-01-13 14:12:00,23.0,16.0,30.08,North,0,2.0,3.0,74,-99.99,,,-99.99,,2013-01-13 20:12:00,
2013-01-13 14:22:00,23.0,16.0,30.08,North,0,2.0,3.0,74,-99.99,,,-99.99,,2013-01-13 20:22:00,
2013-01-13 14:33:00,25.0,19.0,30.09,NW,325,2.0,4.0,77,-99.99,,,-99.99,,2013-01-13 20:33:00,
2013-01-13 14:43:00,25.0,17.0,30.10,NNW,335,2.0,4.0,73,-99.99,,,-99.99,,2013-01-13 20:43:00,
2013-01-13 14:53:00,25.0,17.0,30.10,NNW,335,2.0,4.0,73,-99.99,,,-99.99,,2013-01-13 20:53:00,
2013-01-13 15:03:00,25.0,18.0,30.11,NW,310,2.0,3.0,74,-99.99,,,-99.99,,2013-01-13 21:03:00,
2013-01-13 15:12:00,26.0,19.0,30.12,NNW,330,1.0,3.0,75,-99.99,,,-99.99,,2013-01-13 21:12:00,
2013-01-13 15:23:00,26.0,19.0,30.12,NNW,330,1.0,3.0,75,-99.99,,,-99.99,,2013-01-13 21:23:00,
2013-01-13 15:33:00,25.0,18.0,30.13,NNW,345,2.0,3.0,75,-99.99,,,-99.99,,2013-01-13 21:33:00,
2013-01-13 15:43:00,25.0,18.0,30.13,NW,310,2.0,4.0,74,-99.99,,,-99.99,,2013-01-13 21:43:00,
2013-01-13 15:50:00,25.0,17.0,30.15,NNW,340,2.0,3.0,73,-99.99,,,-99.99,,2013-01-13 21:50:00,
2013-01-13 15:52:00,25.0,18.0,30.13,NW,310,2.0,4.0,74,-99.99,,,-99.99,,2013-01-13 21:52:00,
2013-01-13 16:02:00,26.0,19.0,30.14,North,355,2.0,3.0,75,-99.99,,,-99.99,,2013-01-13 22:02:00,
2013-01-13 16:12:00,25.0,18.0,30.15,NNW,330,2.0,3.0,74,-99.99,,,-99.99,,2013-01-13 22:12:00,
2013-01-13 16:22:00,25.0,18.0,30.15,NNW,330,2.0,3.0,74,-99.99,,,-99.99,,2013-01-13 22:22:00,
2013-01-13 16:33:00,25.0,17.0,30.15,NNW,340,2.0,3.0,73,-99.99,,,-99.99,,2013-01-13 22:33:00,
2013-01-13 16:43:00,25.0,17.0,30.15,NNW,340,2.0,3.0,73,-99.99,,,-99.99,,2013-01-13 22:43:00,
2013-01-13 17:02:00,25.0,18.0,30.15,NNW,345,2.0,3.0,74,-99.99,,,-99.99,,2013-01-13 23:02:00,
2013-01-13 17:12:00,24.0,17.0,30.15,NNW,330,2.0,3.0,73,-99.99,,,-99.99,,2013-01-13 23:12:00,
2013-01-13 17:22:00,24.0,17.0,30.15,NNW,330,2.0,3.0,73,-99.99,,,-99.99,,2013-01-13 23:22:00,
2013-01-13 17:33:00,24.0,17.0,30.15,North,350,2.0,3.0,73,-99.99,,,-99.99,,2013-01-13 23:33:00,
2013-01-13 17:42:00,24.0,17.0,30.15,NNW,340,2.0,3.0,74,-99.99,,,-99.99,,2013-01-13 23:42:00,
2013-01-13 17:52:00,24.0,17.0,30.15,NNW,340,2.0,3.0,74,-99.99,,,-99.99,,2013-01-13 23:52:00,
2013-01-13 18:03:00,24.0,17.0,30.17,NNW,335,2.0,2.0,75,-99.99,,,-99.99,,2013-01-14 00:03:00,
2013-01-13 18:12:00,23.0,17.0,30.17,North,0,1.0,2.0,75,-99.99,,,-99.99,,2013-01-14 00:12:00,
2013-01-13 18:22:00,23.0,17.0,30.17,North,0,1.0,2.0,75,-99.99,,,-99.99,,2013-01-14 00:22:00,
2013-01-13 18:33:00,23.0,16.0,30.18,NNW,340,1.0,2.0,75,-99.99,,,-99.99,,2013-01-14 00:33:00,
2013-01-13 18:43:00,22.0,16.0,30.18,NNW,335,1.0,2.0,76,-99.99,,,-99.99,,2013-01-14 00:43:00,
2013-01-13 18:52:00,22.0,16.0,30.18,NNW,335,1.0,2.0,76,-99.99,,,-99.99,,2013-01-14 00:52:00,
2013-01-13 19:03:00,22.0,16.0,30.19,NNW,345,1.0,2.0,77,-99.99,,,-99.99,,2013-01-14 01:03:00,
2013-01-13 19:12:00,22.0,16.0,30.19,North,350,1.0,2.0,77,-99.99,,,-99.99,,2013-01-14 01:12:00,
2013-01-13 19:22:00,22.0,16.0,30.19,North,350,1.0,2.0,77,-99.99,,,-99.99,,2013-01-14 01:22:00,
2013-01-13 19:32:00,21.0,16.0,30.20,NNW,340,1.0,2.0,78,-99.99,,,-99.99,,2013-01-14 01:32:00,
2013-01-13 19:42:00,21.0,16.0,30.20,NNW,340,1.0,2.0,78,-99.99,,,-99.99,,2013-01-14 01:42:00,
2013-01-13 19:52:00,21.0,16.0,30.20,NNW,340,1.0,2.0,78,-99.99,,,-99.99,,2013-01-14 01:52:00,
2013-01-13 20:03:00,21.0,15.0,30.20,NNW,340,1.0,2.0,78,-99.99,,,-99.99,,2013-01-14 02:03:00,
2013-01-13 20:12:00,21.0,15.0,30.20,North,355,2.0,2.0,77,-99.99,,,-99.99,,2013-01-14 02:12:00,
2013-01-13 20:22:00,21.0,15.0,30.20,North,355,2.0,2.0,77,-99.99,,,-99.99,,2013-01-14 02:22:00,
2013-01-13 20:32:00,21.0,15.0,30.20,North,355,2.0,2.0,77,-99.99,,,-99.99,,2013-01-14 02:32:00,
2013-01-13 20:42:00,20.0,14.0,30.20,North,355,2.0,2.0,77,-99.99,,,-99.99,,2013-01-14 02:42:00,
2013-01-13 20:53:00,20.0,14.0,30.20,North,355,2.0,2.0,77,-99.99,,,-99.99,,2013-01-14 02:53:00,
2013-01-13 21:02:00,20.0,14.0,30.21,NNW,330,1.0,2.0,76,-99.99,,,-99.99,,2013-01-14 03:02:00,
2013-01-13 21:12:00,20.0,14.0,30.21,NNW,330,1.0,2.0,77,-99.99,,,-99.99,,2013-01-14 03:12:00,
2013-01-13 21:22:00,20.0,14.0,30.21,NNW,330,1.0,2.0,77,-99.99,,,-99.99,,2013-01-14 03:22:00,
2013-01-13 21:32:00,19.0,13.0,30.21,North,0,1.0,2.0,77,-99.99,,,-99.99,,2013-01-14 03:32:00,
2013-01-13 21:42:00,19.0,13.0,30.22,North,350,1.0,2.0,77,-99.99,,,-99.99,,2013-01-14 03:42:00,
2013-01-13 21:52:00,19.0,13.0,30.22,North,350,1.0,2.0,77,-99.99,,,-99.99,,2013-01-14 03:52:00,
2013-01-13 22:02:00,19.0,13.0,30.22,NW,320,0.0,1.0,78,-99.99,,,-99.99,,2013-01-14 04:02:00,
2013-01-13 22:12:00,19.0,13.0,30.22,North,350,1.0,1.0,77,-99.99,,,-99.99,,2013-01-14 04:12:00,
2013-01-13 22:22:00,19.0,13.0,30.22,North,350,1.0,1.0,77,-99.99,,,-99.99,,2013-01-14 04:22:00,
2013-01-13 22:32:00,19.0,13.0,30.23,NNW,335,0.0,1.0,77,-99.99,,,-99.99,,2013-01-14 04:32:00,
2013-01-13 22:42:00,18.0,12.0,30.24,West,280,0.0,0.0,77,-99.99,,,-99.99,,2013-01-14 04:42:00,
2013-01-13 22:52:00,18.0,12.0,30.24,West,280,0.0,0.0,77,-99.99,,,-99.99,,2013-01-14 04:52:00,
2013-01-13 23:04:00,18.0,12.0,30.25,WSW,255,0.0,0.0,77,-99.99,,,-99.99,,2013-01-14 05:04:00,
2013-01-13 23:12:00,18.0,12.0,30.26,WSW,240,0.0,0.0,77,-99.99,,,-99.99,,2013-01-14 05:12:00,
2013-01-13 23:22:00,18.0,12.0,30.26,WSW,240,0.0,0.0,77,-99.99,,,-99.99,,2013-01-14 05:22:00,
2013-01-13 23:32:00,18.0,12.0,30.28,SW,230,0.0,0.0,77,-99.99,,,-99.99,,2013-01-14 05:32:00,
2013-01-13 23:42:00,18.0,12.0,30.28,SW,225,0.0,0.0,77,-99.99,,,-99.99,,2013-01-14 05:42:00,
2013-01-13 23:52:00,18.0,12.0,30.28,SW,225,0.0,0.0,77,-99.99,,,-99.99,,2013-01-14 05:52:00,